[[[{"header":{"parameterUnit":"kt","parameterCategory":2,"dx":1,"dy":1,"la1":30.253999710083008,"la2":30.299108505249023,"lo1":-89.0895004272461,"lo2":-89.04439544677734,"nx":28,"ny":28,"refTime":"2022-09-24T21:00:00:Z","depth":0,"parameterNumber":1,"parameterNumberName":"U-component_of_WINDS"},"data":[2.2527,2.2496,2.2473,2.2426,2.2397,2.236,2.2339,2.2309,2.2278,2.2229,2.2197,2.2168,2.2125,2.2078,2.204,2.2027,2.2012,2.2019,2.2002,2.1997,2.1995,2.1992,2.1999,2.2016,2.2016,2.2011,2.2011,2.2011,2.2524,2.2495,2.2464,2.2418,2.239,2.237,2.233,2.2308,2.2275,2.2237,2.2203,2.2158,2.2118,2.2072,2.2028,2.2011,2.1997,2.2,2.2001,2.1994,2.1988,2.1995,2.2012,2.2012,2.2012,2.2012,2.2012,2.2012,2.2512,2.2495,2.2453,2.2419,2.2389,2.2357,2.2336,2.2302,2.227,2.2224,2.22,2.2161,2.2117,2.2052,2.2024,2.1991,2.1982,2.1977,2.1976,2.1975,2.1977,2.1986,2.1982,2.1982,2.1982,2.1982,2.1981,0,2.2495,2.2477,2.2446,2.2407,2.2381,2.2348,2.2314,2.23,2.225,2.2225,2.2187,2.216,2.2106,2.2065,2.2019,2.199,2.1963,2.1958,2.1954,2.1965,2.198,2.197,2.1961,2.1958,2.1958,2.1957,2.1957,2.1957,2.248,2.2463,2.2409,2.239,2.2365,2.2335,2.2312,2.227,2.2247,2.2197,2.2182,2.2142,2.2107,2.2047,2.2005,2.1964,2.195,2.1952,2.1943,2.1954,2.1948,2.1949,2.1946,2.1954,2.1954,2.1955,2.1955,0,2.2473,2.2435,2.2401,2.2348,2.2334,2.2318,2.2271,2.2251,2.222,2.2188,2.2178,2.2128,2.209,2.2047,2.1994,2.1972,2.194,2.1929,2.1955,2.195,2.1946,2.1947,2.1944,2.194,2.1923,2.1923,2.1924,0,2.2444,2.2424,2.2368,2.235,2.2325,2.2284,2.226,2.2231,2.2193,2.2168,2.2132,2.2109,2.2058,2.2027,2.1995,2.1962,2.1952,2.1933,2.1925,2.1936,2.1938,2.1921,2.192,2.1908,2.1908,2.1908,2.1908,0,2.2437,2.2384,2.2355,2.2337,2.2277,2.2264,2.2239,2.2197,2.2174,2.2137,2.2122,2.2082,2.2059,2.2028,2.1987,2.1983,2.1946,2.1932,2.1926,2.1927,2.192,2.1921,2.1929,2.1908,2.1908,2.1908,2.1908,0,2.2407,2.2374,2.234,2.2289,2.2276,2.2258,2.2216,2.219,2.2148,2.2128,2.2098,2.2069,2.2038,2.2027,2.1982,2.1989,2.1968,2.1947,2.1946,2.1939,2.1928,2.1937,2.1951,2.1951,2.1934,2.1934,2.1935,0,2.2409,2.2364,2.2329,2.2296,2.2269,2.2232,2.221,2.2174,2.2145,2.2117,2.2083,2.2051,2.2034,2.2018,2.2002,2.1965,2.1957,2.1965,2.192,2.1919,2.1932,2.1945,2.1957,2.1953,2.1937,2.1937,2.1936,0,2.2405,2.2335,2.2332,2.2309,2.2257,2.2235,2.2209,2.2169,2.2152,2.2117,2.2093,2.2047,2.2031,2.2005,2.1977,2.1963,2.1961,2.1948,2.1946,2.1951,2.1935,2.1947,2.1946,2.1945,2.1945,2.1945,2.1938,0,2.2366,2.2339,2.233,2.2281,2.2257,2.2236,2.2193,2.2173,2.2149,2.2119,2.2084,2.2044,2.2001,2.199,2.1967,2.1948,2.1944,2.1928,2.1913,2.1923,2.1919,2.1918,2.1922,2.1921,2.1921,2.192,0,0,2.2375,2.2337,2.23,2.2275,2.2253,2.2215,2.2195,2.2168,2.2116,2.21,2.2092,2.2021,2.1989,2.1951,2.195,2.1933,2.1925,2.1924,2.1919,2.1919,2.1919,2.1916,2.1915,2.1919,2.1919,2.1919,2.1919,0,2.2353,2.2324,2.2306,2.2278,2.2234,2.2204,2.22,2.215,2.2129,2.2096,2.2064,2.2037,2.1983,2.1952,2.1929,2.1928,2.1904,2.1918,2.1932,2.1915,2.1916,2.1916,2.1914,2.1914,2.1917,2.1917,2.1917,0,2.234,2.2304,2.2292,2.2241,2.2212,2.2186,2.2161,2.2135,2.2114,2.2072,2.204,2.2012,2.1967,2.1938,2.1923,2.1914,2.1887,2.1889,2.1891,2.1888,2.1869,2.187,2.1871,2.1858,2.1858,2.1858,0,0,2.2326,2.2302,2.225,2.2233,2.2217,2.2173,2.2155,2.2129,2.2092,2.2077,2.204,2.2003,2.1971,2.195,2.1918,2.1892,2.1878,2.1883,2.1886,2.1888,2.1887,2.1869,2.187,2.1858,2.1858,2.1858,0,0,2.2318,2.2259,2.2242,2.2218,2.2184,2.2131,2.2122,2.2099,2.2066,2.2064,2.2019,2.2007,2.1979,2.1952,2.1956,2.1911,2.1898,2.1896,2.193,2.1933,2.1935,2.1942,2.1923,0,0,0,0,0,2.2274,2.2266,2.2252,2.2242,2.2177,2.2139,2.2131,2.2094,2.2085,2.2078,2.2044,2.202,2.1944,2.1947,2.1936,2.1932,2.1857,2.1857,2.1858,2.1895,2.1898,2.1901,0,0,0,0,0,0,2.2269,2.2257,2.2252,2.22,2.2185,2.2139,2.2116,2.2106,2.2085,2.2081,2.2028,2.2019,2.1986,2.195,2.1941,2.1937,2.1926,2.1857,2.1857,2.1858,2.1896,2.1899,2.1901,0,0,0,0,0,2.2266,2.2256,2.2163,2.2199,2.2186,2.2136,2.2116,2.2107,2.2091,2.2038,2.2028,2.2065,2.1987,2.1977,2.1944,2.1943,2.1932,2.1929,2.1857,2.1858,2.1858,2.1897,0,0,0,0,0,0,2.2263,2.2246,2.2159,2.2154,2.22,2.2138,2.2127,2.2109,2.2047,2.2038,2.2073,2.207,2.1987,2.1979,2.1972,2.1946,2.1937,2.1934,2.1932,2.1858,2.1858,2.1858,0,0,0,0,0,0,2.2252,2.2242,2.2157,2.216,2.2154,2.214,2.213,2.2097,2.2047,2.2086,2.2082,2.2072,2.1998,2.1981,2.1975,2.1926,2.1941,2.1938,2.1935,2.1934,2.1858,2.1858,0,0,0,0,0,0,2.2247,2.2239,2.2161,2.2157,2.2152,2.2089,2.211,2.2046,2.2052,2.2089,2.2051,2.2051,2.2001,2.1994,2.1978,2.1931,2.1927,2.1941,2.1939,2.1937,2.1936,0,0,0,0,0,0,0,2.2243,2.2306,2.2192,2.2154,2.215,2.2104,2.2103,2.2101,2.2052,2.2051,2.2051,2.2051,2.1959,2.1955,2.1952,2.1935,0,0,2.1941,2.1939,0,0,0,0,0,0,0,0,2.2309,2.2307,2.2191,2.219,2.2189,2.2104,2.2103,2.2102,2.2052,2.2051,2.2051,2.2051,2.1958,2.1955,2.1952,0,0,0,0,0,0,0,0,0,0,0,0,0,0,0,2.2191,2.219,0,2.2104,2.2103,2.2102,2.2052,2.2051,2.2051,2.2051,2.1957,2.1955,2.1952,0,0,0,0,0,0,0,0,0,0,0,0,0,0,0,0,0,0,0,0,0,0,0,0,0,0,0,0,0,0,0,0,0,0,0,0,0,0,0,0,0,0,0,0,0,0,0,0,0,0,0,0,0,0,0,0,0,0,0,0,0,0,0,0,0,0,0,0,0]}],[{"header":{"parameterUnit":"kt","parameterCategory":2,"dx":1,"dy":1,"la1":30.253999710083008,"la2":30.299108505249023,"lo1":-89.0895004272461,"lo2":-89.04439544677734,"nx":28,"ny":28,"refTime":"2022-09-24T21:00:00:Z","depth":0,"parameterNumber":2,"parameterNumberName":"V-component_of_WINDS"},"data":[2.3201,2.325,2.3245,2.3299,2.3304,2.3339,2.3351,2.3365,2.3375,2.3418,2.3441,2.3443,2.3451,2.3479,2.3504,2.3504,2.3515,2.3534,2.353,2.3448,2.3436,2.3425,2.3411,2.3537,2.3537,2.3615,2.3616,2.3617,2.3134,2.3139,2.3167,2.3191,2.3214,2.3191,2.3209,2.323,2.3264,2.3278,2.3302,2.334,2.3369,2.3373,2.34,2.3423,2.3414,2.343,2.3428,2.3429,2.3341,2.3327,2.3437,2.3437,2.3437,2.3437,2.3437,2.3437,2.301,2.3041,2.3053,2.3084,2.3095,2.3111,2.314,2.3141,2.3169,2.3198,2.3189,2.3227,2.3241,2.3275,2.3286,2.3315,2.3296,2.3313,2.3317,2.3321,2.3324,2.3205,2.332,2.332,2.332,2.3319,2.3319,0,2.2918,2.2912,2.294,2.2966,2.2988,2.3009,2.3027,2.3045,2.3033,2.3058,2.3092,2.3112,2.315,2.3183,2.3209,2.3218,2.3198,2.3197,2.3208,2.3211,2.3209,2.3207,2.3061,2.3194,2.3192,2.3192,2.3191,2.3191,2.2791,2.2829,2.2841,2.2861,2.287,2.2904,2.2923,2.291,2.2931,2.2952,2.2981,2.3014,2.304,2.3097,2.31,2.313,2.312,2.317,2.3125,2.3125,2.3117,2.3114,2.3116,2.3179,2.3181,2.3182,2.3183,0,2.2718,2.2713,2.2771,2.2781,2.2784,2.2825,2.2833,2.2864,2.2863,2.2906,2.2916,2.2915,2.295,2.2945,2.2986,2.2982,2.3045,2.3037,2.3039,2.3036,2.3078,2.3073,2.3223,2.324,2.3113,2.3114,2.3116,0,2.2607,2.2659,2.2646,2.2681,2.2737,2.2723,2.278,2.2784,2.2798,2.2832,2.2809,2.2842,2.2831,2.2863,2.2857,2.2909,2.2918,2.2917,2.2915,2.2918,2.2918,2.2929,2.2922,2.2912,2.2912,2.2911,2.291,0,2.2493,2.2549,2.2606,2.2618,2.2635,2.2662,2.267,2.2686,2.2706,2.2732,2.2744,2.2776,2.2793,2.2817,2.2809,2.2778,2.2874,2.283,2.2873,2.2873,2.2894,2.2893,2.3027,2.2909,2.2909,2.2909,2.2909,0,2.2401,2.2427,2.2512,2.2524,2.254,2.2578,2.2607,2.2639,2.2658,2.2657,2.2678,2.2662,2.271,2.2665,2.273,2.2691,2.2708,2.2713,2.2716,2.2719,2.2668,2.2742,2.2873,2.2885,2.2721,2.272,2.2719,0,2.227,2.2355,2.2344,2.2426,2.2464,2.2434,2.2477,2.2495,2.2497,2.253,2.2533,2.2572,2.2538,2.2549,2.2582,2.2587,2.2638,2.258,2.2625,2.2627,2.2618,2.2738,2.2758,2.2845,2.2699,2.2701,2.2702,0,2.2169,2.219,2.2206,2.2218,2.2241,2.2275,2.2325,2.236,2.2382,2.2407,2.2447,2.2503,2.2479,2.2499,2.2491,2.2526,2.2603,2.2496,2.2496,2.2513,2.269,2.2707,2.2722,2.259,2.2592,2.2594,2.2687,0,2.2026,2.207,2.2113,2.2145,2.217,2.2223,2.2219,2.2246,2.2234,2.2236,2.2297,2.2315,2.2352,2.237,2.2361,2.2443,2.2428,2.2403,2.2359,2.2439,2.2469,2.2482,2.2313,2.2312,2.2311,2.231,0,0,2.19,2.1964,2.1952,2.2001,2.2021,2.1991,2.2048,2.2065,2.2101,2.2116,2.2091,2.2173,2.2189,2.2264,2.2289,2.2306,2.2319,2.2293,2.2401,2.2412,2.2421,2.2453,2.2467,2.2308,2.2308,2.2307,2.2307,0,2.1847,2.1864,2.192,2.1937,2.1962,2.1961,2.1975,2.1995,2.1999,2.2061,2.2036,2.2074,2.2143,2.216,2.2179,2.2284,2.2263,2.2296,2.2352,2.2391,2.2402,2.2413,2.2447,2.246,2.2304,2.2304,2.2305,0,2.1744,2.1758,2.1786,2.1834,2.1851,2.1893,2.1845,2.1894,2.1925,2.1892,2.1954,2.1964,2.199,2.2063,2.2096,2.2075,2.2211,2.217,2.2177,2.218,2.2218,2.2232,2.2244,2.2079,2.2078,2.2077,0,0,2.1699,2.1741,2.1754,2.1822,2.1834,2.1836,2.1859,2.1851,2.1875,2.1885,2.1897,2.1921,2.196,2.1986,2.2024,2.2106,2.2109,2.2142,2.2153,2.2162,2.217,2.221,2.2223,2.2074,2.2074,2.2074,0,0,2.1678,2.1695,2.1679,2.1759,2.1781,2.18,2.1842,2.1824,2.1857,2.1851,2.184,2.1847,2.1916,2.1927,2.1887,2.2007,2.1964,2.1974,2.1998,2.2011,2.2021,2.2017,2.1842,0,0,0,0,0,2.1622,2.1692,2.1678,2.1691,2.1753,2.1807,2.1815,2.1808,2.1776,2.1809,2.1816,2.1793,2.1903,2.1867,2.188,2.1925,2.2036,2.2043,2.2049,2.2099,2.2113,2.2125,0,0,0,0,0,0,2.1626,2.1642,2.1676,2.1697,2.1711,2.1805,2.1749,2.1748,2.1772,2.1766,2.1793,2.1794,2.179,2.186,2.1872,2.1914,2.1838,2.2039,2.2045,2.205,2.2104,2.2116,2.2125,0,0,0,0,0,2.163,2.1643,2.1746,2.1696,2.1709,2.1715,2.1746,2.1745,2.1763,2.1776,2.1777,2.1756,2.1791,2.1801,2.1867,2.1909,2.1829,2.1834,2.2043,2.2047,2.2051,2.211,0,0,0,0,0,0,2.1633,2.1643,2.1748,2.1751,2.167,2.171,2.1716,2.1743,2.1771,2.1773,2.1738,2.1733,2.1793,2.18,2.1808,2.1907,2.1822,2.1827,2.183,2.2046,2.205,2.2053,0,0,0,0,0,0,2.1636,2.1646,2.175,2.1716,2.1716,2.1705,2.171,2.1767,2.1772,2.1732,2.1729,2.1736,2.1782,2.18,2.1806,2.1894,2.1817,2.1821,2.1825,2.1826,2.2049,2.2052,0,0,0,0,0,0,2.164,2.1649,2.1715,2.1715,2.1714,2.1752,2.1754,2.1819,2.1742,2.1731,2.1735,2.1732,2.1783,2.1788,2.1805,2.1891,2.1894,2.1817,2.182,2.1822,2.1824,0,0,0,0,0,0,0,2.1644,2.1588,2.1728,2.1714,2.1713,2.1783,2.1784,2.1785,2.1742,2.1739,2.1736,2.1733,2.1792,2.1797,2.1802,2.1888,0,0,2.1817,2.1819,0,0,0,0,0,0,0,0,2.1584,2.1587,2.1728,2.1728,2.1729,2.1783,2.1784,2.1784,2.1741,2.1739,2.1737,2.1734,2.1793,2.1797,2.1801,0,0,0,0,0,0,0,0,0,0,0,0,0,0,0,2.1728,2.1728,0,2.1783,2.1784,2.1784,2.1741,2.1739,2.1737,2.1735,2.1794,2.1797,2.1801,0,0,0,0,0,0,0,0,0,0,0,0,0,0,0,0,0,0,0,0,0,0,0,0,0,0,0,0,0,0,0,0,0,0,0,0,0,0,0,0,0,0,0,0,0,0,0,0,0,0,0,0,0,0,0,0,0,0,0,0,0,0,0,0,0,0,0,0,0]}]]]